Terug naar catalogus

YAOGAN-43 03A

ActiefMilitairVLEO
NORAD 61617·PAYLOAD·🇨🇳 China

Gelanceerd Oct 23, 2024 vanaf Xichang Satellite Launch Center

Loading…

Volgende Passages (komende 24 uur)

TLE

VersSource: Space-Track

Epoch: Sep 14, 2026, 17:21 UTC

1 61617U 24190A   26257.72334616  .00005810  00000-0  24217-3 0  9994
2 61617  34.9923 354.5789 0004171  64.5240 295.5906 15.23041926105520

Volg YAOGAN-43 03A in realtime met AllMySat

Download on the App Store